| time (UTC) | temp C | wind direction | speed KPH | gust KPH | rain 1hr cm | rain 24hr cm | rain mn cm | humidity % | barometer mb |
| 20260510181213 | 12 | 11 | 17.7 | 30.6 | 0.00 | 0.00 | 0.00 | 80 | 1023.1 |
| 20260510180709 | 12 | 34 | 16.1 | 33.8 | 0.00 | 0.00 | 0.00 | 81 | 1022.8 |
| 20260510180207 | 12 | 64 | 24.1 | 30.6 | 0.00 | 0.00 | 0.00 | 81 | 1022.5 |
| 20260510175702 | 12 | 44 | 24.1 | 40.2 | 0.00 | 0.00 | 0.00 | 82 | 1022.1 |
| 20260510175158 | 12 | 48 | 12.9 | 32.2 | 0.00 | 0.00 | 0.00 | 83 | 1022.0 |
| 20260510174655 | 12 | 30 | 27.4 | 40.2 | 0.00 | 0.00 | 0.00 | 84 | 1022.0 |
| 20260510174153 | 12 | 18 | 24.1 | 35.4 | 0.00 | 0.00 | 0.00 | 84 | 1022.0 |
| 20260510173649 | 12 | 40 | 19.3 | 33.8 | 0.00 | 0.00 | 0.00 | 84 | 1022.2 |
| 20260510173145 | 12 | 34 | 19.3 | 32.2 | 0.00 | 0.00 | 0.00 | 84 | 1022.1 |
| 20260510172640 | 12 | 29 | 14.5 | 33.8 | 0.00 | 0.00 | 0.00 | 84 | 1022.5 |
| 20260510172137 | 12 | 28 | 25.7 | 37.0 | 0.00 | 0.00 | 0.00 | 85 | 1022.2 |
| 20260510171634 | 12 | 30 | 19.3 | 32.2 | 0.00 | 0.00 | 0.00 | 86 | 1022.2 |
| 20260510171132 | 11 | 21 | 14.5 | 27.4 | 0.00 | 0.00 | 0.00 | 87 | 1022.2 |
| 20260510170628 | 11 | 25 | 19.3 | 38.6 | 0.00 | 0.00 | 0.00 | 90 | 1022.0 |
| 20260510170124 | 11 | 34 | 12.9 | 27.4 | 0.00 | 0.00 | 0.00 | 93 | 1022.0 |
| 20260510165620 | 11 | 21 | 19.3 | 22.5 | 0.00 | 0.00 | 0.00 | 94 | 1021.6 |
| 20260510165116 | 11 | 17 | 22.5 | 29.0 | 0.00 | 0.00 | 0.00 | 95 | 1021.7 |
| 20260510164614 | 10 | 23 | 19.3 | 27.4 | 0.00 | 0.00 | 0.00 | 95 | 1021.5 |
| 20260510164110 | 10 | 17 | 27.4 | 35.4 | 0.00 | 0.00 | 0.00 | 96 | 1021.6 |
| 20260510163605 | 10 | 27 | 17.7 | 33.8 | 0.00 | 0.00 | 0.00 | 96 | 1021.7 |
| 20260510163102 | 10 | 28 | 20.9 | 40.2 | 0.00 | 0.00 | 0.00 | 96 | 1021.7 |
| 20260510162557 | 10 | 32 | 14.5 | 38.6 | 0.00 | 0.00 | 0.00 | 96 | 1021.6 |
| 20260510162053 | 10 | 38 | 24.1 | 33.8 | 0.00 | 0.00 | 0.00 | 96 | 1021.7 |
| 20260510161549 | 10 | 23 | 19.3 | 32.2 | 0.00 | 0.00 | 0.00 | 96 | 1021.2 |
| 20260510161047 | 11 | 22 | 19.3 | 33.8 | 0.00 | 0.00 | 0.00 | 95 | 1020.9 |
| 20260510160543 | 11 | 2 | 16.1 | 27.4 | 0.00 | 0.00 | 0.00 | 95 | 1021.1 |
| 20260510160043 | 11 | 20 | 19.3 | 29.0 | 0.00 | 0.00 | 0.00 | 95 | 1021.0 |
| 20260510155539 | 11 | 13 | 19.3 | 29.0 | 0.00 | 0.00 | 0.00 | 95 | 1021.5 |
| 20260510155036 | 11 | 31 | 19.3 | 30.6 | 0.00 | 0.00 | 0.00 | 95 | 1021.4 |
| 20260510154531 | 11 | 30 | 20.9 | 32.2 | 0.00 | 0.00 | 0.00 | 94 | 1021.2 |
| 20260510154027 | 11 | 20 | 24.1 | 32.2 | 0.00 | 0.00 | 0.00 | 94 | 1021.1 |
| 20260510153522 | 12 | 48 | 32.2 | 38.6 | 0.00 | 0.00 | 0.00 | 93 | 1020.9 |
| 20260510153019 | 12 | 20 | 20.9 | 25.7 | 0.00 | 0.00 | 0.00 | 93 | 1020.7 |
| 20260510152516 | 12 | 48 | 22.5 | 35.4 | 0.00 | 0.00 | 0.00 | 92 | 1020.4 |
| 20260510152012 | 12 | 19 | 16.1 | 35.4 | 0.00 | 0.00 | 0.00 | 91 | 1020.4 |
| 20260510151509 | 13 | 40 | 22.5 | 45.1 | 0.00 | 0.00 | 0.00 | 89 | 1020.1 |
| 20260510151007 | 13 | 14 | 25.7 | 40.2 | 0.00 | 0.00 | 0.00 | 88 | 1019.9 |
| 20260510150502 | 13 | 26 | 25.7 | 32.2 | 0.00 | 0.00 | 0.00 | 86 | 1019.8 |
| 20260510145958 | 13 | 34 | 20.9 | 35.4 | 0.00 | 0.00 | 0.00 | 88 | 1019.7 |
| 20260510145455 | 13 | 25 | 25.7 | 41.8 | 0.00 | 0.00 | 0.00 | 91 | 1019.8 |
| 20260510144951 | 13 | 19 | 12.9 | 27.4 | 0.00 | 0.00 | 0.00 | 92 | 1019.8 |
| 20260510144447 | 12 | 30 | 24.1 | 35.4 | 0.00 | 0.00 | 0.00 | 92 | 1019.7 |
| 20260510143942 | 12 | 40 | 22.5 | 33.8 | 0.00 | 0.00 | 0.00 | 92 | 1019.6 |
| 20260510143439 | 12 | 10 | 24.1 | 35.4 | 0.00 | 0.00 | 0.00 | 91 | 1019.7 |
| 20260510142936 | 13 | 18 | 17.7 | 35.4 | 0.00 | 0.00 | 0.00 | 91 | 1019.7 |
| 20260510142427 | 13 | 30 | 27.4 | 35.4 | 0.00 | 0.00 | 0.00 | 89 | 1019.6 |
| 20260510141924 | 13 | 48 | 37.0 | 37.0 | 0.00 | 0.00 | 0.00 | 88 | 1019.6 |
| 20260510141420 | 13 | 32 | 20.9 | 40.2 | 0.00 | 0.00 | 0.00 | 87 | 1019.2 |
| 20260510140917 | 13 | 18 | 20.9 | 37.0 | 0.00 | 0.00 | 0.00 | 86 | 1019.6 |
| 20260510140414 | 13 | 0 | 22.5 | 43.5 | 0.00 | 0.00 | 0.00 | 86 | 1019.4 |
| 20260510135907 | 13 | 28 | 22.5 | 35.4 | 0.00 | 0.00 | 0.00 | 86 | 1019.1 |
| 20260510135404 | 13 | 16 | 24.1 | 41.8 | 0.00 | 0.00 | 0.00 | 86 | 1018.7 |
| 20260510134901 | 13 | 8 | 29.0 | 40.2 | 0.00 | 0.00 | 0.00 | 86 | 1018.7 |
| 20260510134357 | 13 | 21 | 20.9 | 30.6 | 0.00 | 0.00 | 0.00 | 87 | 1018.5 |
| 20260510133854 | 13 | 23 | 19.3 | 32.2 | 0.00 | 0.00 | 0.00 | 87 | 1018.4 |
| 20260510133350 | 13 | 38 | 33.8 | 43.5 | 0.00 | 0.00 | 0.00 | 87 | 1018.4 |
| 20260510132846 | 13 | 12 | 25.7 | 33.8 | 0.00 | 0.00 | 0.00 | 87 | 1018.5 |
| 20260510132344 | 13 | 14 | 20.9 | 41.8 | 0.00 | 0.00 | 0.00 | 87 | 1018.2 |
| 20260510131840 | 13 | 7 | 24.1 | 32.2 | 0.00 | 0.00 | 0.00 | 86 | 1017.9 |
| 20260510131338 | 13 | 17 | 22.5 | 30.6 | 0.00 | 0.00 | 0.00 | 86 | 1017.7 |
| 20260510130834 | 13 | 15 | 17.7 | 32.2 | 0.00 | 0.00 | 0.00 | 86 | 1017.5 |
| 20260510130332 | 13 | 22 | 22.5 | 33.8 | 0.00 | 0.00 | 0.00 | 85 | 1017.0 |
| 20260510125828 | 15 | 23 | 17.7 | 30.6 | 0.00 | 0.00 | 0.00 | 86 | 1017.1 |
| 20260510125324 | 15 | 20 | 16.1 | 24.1 | 0.00 | 0.00 | 0.00 | 85 | 1016.8 |
| 20260510124821 | 15 | 23 | 12.9 | 20.9 | 0.00 | 0.00 | 0.00 | 85 | 1016.8 |
| 20260510124318 | 15 | 26 | 12.9 | 30.6 | 0.00 | 0.00 | 0.00 | 85 | 1016.5 |
| 20260510123814 | 15 | 16 | 17.7 | 27.4 | 0.00 | 0.00 | 0.00 | 85 | 1016.5 |
| 20260510123309 | 15 | 36 | 14.5 | 22.5 | 0.00 | 0.00 | 0.00 | 84 | 1016.3 |
| 20260510122806 | 15 | 25 | 9.7 | 25.7 | 0.00 | 0.00 | 0.00 | 84 | 1016.1 |
| 20260510122306 | 15 | 50 | 11.3 | 24.1 | 0.00 | 0.00 | 0.00 | 84 | 1015.9 |
| 20260510121759 | 15 | 25 | 14.5 | 27.4 | 0.00 | 0.00 | 0.00 | 83 | 1015.7 |
| 20260510121256 | 15 | 42 | 16.1 | 27.4 | 0.00 | 0.00 | 0.00 | 83 | 1015.8 |
| 20260510120753 | 15 | 51 | 20.9 | 30.6 | 0.00 | 0.00 | 0.00 | 83 | 1015.3 |
| 20260510120250 | 15 | 71 | 24.1 | 30.6 | 0.00 | 0.00 | 0.00 | 83 | 1015.3 |
| 20260510115746 | 15 | 78 | 22.5 | 32.2 | 0.00 | 0.00 | 0.00 | 82 | 1015.1 |
| 20260510115244 | 16 | 60 | 19.3 | 25.7 | 0.00 | 0.00 | 0.00 | 82 | 1015.1 |
| 20260510114738 | 16 | 49 | 11.3 | 27.4 | 0.00 | 0.00 | 0.00 | 81 | 1015.6 |
| 20260510114237 | 16 | 57 | 16.1 | 29.0 | 0.00 | 0.00 | 0.00 | 81 | 1015.3 |
| 20260510113731 | 16 | 60 | 24.1 | 33.8 | 0.00 | 0.00 | 0.00 | 81 | 1015.0 |
| 20260510113228 | 16 | 78 | 20.9 | 35.4 | 0.00 | 0.00 | 0.00 | 80 | 1014.7 |
| 20260510112719 | 16 | 69 | 22.5 | 37.0 | 0.00 | 0.00 | 0.00 | 80 | 1014.8 |
| 20260510112216 | 16 | 79 | 29.0 | 33.8 | 0.00 | 0.00 | 0.00 | 80 | 1014.8 |
| 20260510111711 | 16 | 80 | 24.1 | 30.6 | 0.00 | 0.00 | 0.00 | 81 | 1014.8 |
| 20260510111208 | 16 | 76 | 25.7 | 30.6 | 0.00 | 0.00 | 0.00 | 81 | 1015.3 |
| 20260510110702 | 16 | 59 | 30.6 | 33.8 | 0.00 | 0.00 | 0.00 | 82 | 1014.9 |
| 20260510110200 | 16 | 61 | 22.5 | 29.0 | 0.00 | 0.00 | 0.00 | 83 | 1015.1 |
| 20260510105655 | 16 | 51 | 19.3 | 25.7 | 0.00 | 0.00 | 0.00 | 84 | 1014.9 |
| 20260510105155 | 15 | 60 | 14.5 | 22.5 | 0.00 | 0.00 | 0.00 | 85 | 1015.1 |
| 20260510104652 | 15 | 34 | 17.7 | 25.7 | 0.00 | 0.00 | 0.00 | 86 | 1015.1 |
| 20260510104149 | 15 | 61 | 22.5 | 27.4 | 0.00 | 0.00 | 0.00 | 86 | 1014.6 |
| 20260510103646 | 15 | 52 | 16.1 | 24.1 | 0.00 | 0.00 | 0.00 | 86 | 1014.5 |
| 20260510103143 | 15 | 33 | 14.5 | 17.7 | 0.00 | 0.00 | 0.00 | 86 | 1014.2 |
| 20260510102633 | 15 | 63 | 17.7 | 32.2 | 0.00 | 0.00 | 0.00 | 86 | 1013.9 |
| 20260510102129 | 15 | 77 | 24.1 | 30.6 | 0.00 | 0.00 | 0.00 | 86 | 1013.9 |
| 20260510101626 | 15 | 83 | 17.7 | 33.8 | 0.00 | 0.00 | 0.00 | 86 | 1013.6 |
| 20260510101124 | 15 | 71 | 20.9 | 29.0 | 0.00 | 0.00 | 0.00 | 85 | 1013.7 |
| 20260510100620 | 15 | 68 | 24.1 | 33.8 | 0.00 | 0.00 | 0.00 | 85 | 1013.7 |
| 20260510100118 | 15 | 69 | 27.4 | 29.0 | 0.00 | 0.00 | 0.00 | 85 | 1013.3 |
| 20260510095614 | 15 | 72 | 16.1 | 25.7 | 0.00 | 0.00 | 0.00 | 85 | 1013.8 |
| 20260510095114 | 15 | 46 | 14.5 | 17.7 | 0.00 | 0.00 | 0.00 | 85 | 1013.9 |
| 20260510094612 | 15 | 26 | 4.8 | 16.1 | 0.00 | 0.00 | 0.00 | 84 | 1013.9 |
| 20260510094108 | 15 | 38 | 9.7 | 16.1 | 0.00 | 0.00 | 0.00 | 84 | 1013.8 |
| 20260510093605 | 15 | 72 | 14.5 | 17.7 | 0.00 | 0.00 | 0.00 | 84 | 1013.6 |
| 20260510093102 | 15 | 76 | 12.9 | 17.7 | 0.00 | 0.00 | 0.00 | 84 | 1013.5 |
| 20260510092559 | 15 | 82 | 14.5 | 17.7 | 0.00 | 0.00 | 0.00 | 83 | 1012.9 |
| 20260510092058 | 15 | 79 | 14.5 | 20.9 | 0.00 | 0.00 | 0.00 | 83 | 1012.7 |
| 20260510091555 | 16 | 79 | 11.3 | 25.7 | 0.00 | 0.00 | 0.00 | 82 | 1012.6 |
| 20260510091051 | 16 | 80 | 14.5 | 22.5 | 0.00 | 0.00 | 0.00 | 82 | 1012.6 |
| 20260510090549 | 16 | 84 | 17.7 | 24.1 | 0.00 | 0.00 | 0.00 | 81 | 1012.3 |
| 20260510090044 | 16 | 87 | 12.9 | 17.7 | 0.00 | 0.00 | 0.00 | 80 | 1012.5 |
| 20260510085539 | 16 | 73 | 9.7 | 17.7 | 0.00 | 0.00 | 0.00 | 79 | 1012.7 |
| 20260510085035 | 16 | 62 | 8.0 | 14.5 | 0.00 | 0.00 | 0.00 | 79 | 1012.7 |
| 20260510084532 | 16 | 67 | 11.3 | 16.1 | 0.00 | 0.00 | 0.00 | 78 | 1012.8 |
| 20260510084029 | 16 | 60 | 12.9 | 19.3 | 0.00 | 0.00 | 0.00 | 77 | 1012.9 |
| 20260510083525 | 17 | 76 | 11.3 | 20.9 | 0.00 | 0.00 | 0.00 | 77 | 1012.8 |
| 20260510083021 | 17 | 91 | 11.3 | 20.9 | 0.00 | 0.00 | 0.00 | 77 | 1012.8 |
| 20260510082518 | 17 | 87 | 11.3 | 14.5 | 0.00 | 0.00 | 0.00 | 76 | 1012.9 |
| 20260510082018 | 17 | 79 | 12.9 | 22.5 | 0.00 | 0.00 | 0.00 | 76 | 1012.6 |
| 20260510081514 | 17 | 82 | 12.9 | 20.9 | 0.00 | 0.00 | 0.00 | 75 | 1012.8 |
| 20260510081010 | 17 | 93 | 11.3 | 24.1 | 0.00 | 0.00 | 0.00 | 75 | 1012.5 |
| 20260510080509 | 17 | 94 | 19.3 | 27.4 | 0.00 | 0.00 | 0.00 | 75 | 1012.5 |
| 20260510080006 | 17 | 94 | 27.4 | 32.2 | 0.00 | 0.00 | 0.00 | 74 | 1012.6 |
| 20260510075504 | 18 | 87 | 12.9 | 27.4 | 0.00 | 0.00 | 0.00 | 74 | 1012.2 |
| 20260510075000 | 18 | 99 | 22.5 | 30.6 | 0.00 | 0.00 | 0.00 | 74 | 1012.1 |
| 20260510074458 | 18 | 98 | 16.1 | 33.8 | 0.00 | 0.00 | 0.00 | 74 | 1012.1 |
| 20260510073953 | 18 | 89 | 12.9 | 27.4 | 0.00 | 0.00 | 0.00 | 74 | 1011.8 |
| 20260510073449 | 18 | 84 | 14.5 | 30.6 | 0.00 | 0.00 | 0.00 | 74 | 1011.5 |
| 20260510072946 | 18 | 67 | 14.5 | 27.4 | 0.00 | 0.00 | 0.00 | 73 | 1011.6 |
| 20260510072443 | 18 | 68 | 17.7 | 25.7 | 0.00 | 0.00 | 0.00 | 73 | 1011.8 |
| 20260510071938 | 18 | 47 | 16.1 | 27.4 | 0.00 | 0.00 | 0.00 | 73 | 1011.8 |
| 20260510071435 | 19 | 79 | 17.7 | 30.6 | 0.00 | 0.00 | 0.00 | 73 | 1011.9 |
| 20260510070933 | 19 | 60 | 16.1 | 24.1 | 0.00 | 0.00 | 0.00 | 73 | 1012.0 |
| 20260510070430 | 19 | 69 | 19.3 | 30.6 | 0.00 | 0.00 | 0.00 | 72 | 1011.8 |
| 20260510065926 | 19 | 71 | 20.9 | 29.0 | 0.00 | 0.00 | 0.00 | 72 | 1011.7 |
| 20260510065422 | 19 | 60 | 14.5 | 24.1 | 0.00 | 0.00 | 0.00 | 73 | 1011.8 |
| 20260510064918 | 19 | 69 | 20.9 | 27.4 | 0.00 | 0.00 | 0.00 | 72 | 1011.9 |
| 20260510064417 | 20 | 59 | 20.9 | 29.0 | 0.00 | 0.00 | 0.00 | 72 | 1011.8 |
| 20260510063913 | 20 | 54 | 16.1 | 27.4 | 0.00 | 0.00 | 0.00 | 72 | 1011.1 |
| 20260510063409 | 20 | 52 | 22.5 | 33.8 | 0.00 | 0.00 | 0.00 | 72 | 1011.6 |
| 20260510062907 | 20 | 70 | 25.7 | 30.6 | 0.00 | 0.00 | 0.00 | 72 | 1011.3 |
| 20260510062402 | 20 | 82 | 27.4 | 30.6 | 0.00 | 0.00 | 0.00 | 71 | 1011.7 |
| 20260510061858 | 20 | 92 | 20.9 | 30.6 | 0.00 | 0.00 | 0.00 | 71 | 1011.5 |
| 20260510061355 | 20 | 65 | 17.7 | 24.1 | 0.00 | 0.00 | 0.00 | 70 | 1011.5 |
| 20260510060850 | 20 | 61 | 27.4 | 33.8 | 0.00 | 0.00 | 0.00 | 68 | 1011.3 |
| 20260510060347 | 20 | 71 | 19.3 | 32.2 | 0.00 | 0.00 | 0.00 | 68 | 1011.1 |
| 20260510055843 | 21 | 74 | 24.1 | 38.6 | 0.00 | 0.00 | 0.00 | 67 | 1011.6 |
| 20260510055343 | 21 | 59 | 17.7 | 22.5 | 0.00 | 0.00 | 0.00 | 66 | 1012.0 |
| 20260510054837 | 21 | 49 | 11.3 | 14.5 | 0.00 | 0.00 | 0.00 | 65 | 1012.3 |
| 20260510054333 | 21 | 89 | 9.7 | 12.9 | 0.00 | 0.00 | 0.00 | 64 | 1011.8 |
| 20260510053827 | 21 | 67 | 16.1 | 25.7 | 0.00 | 0.00 | 0.00 | 63 | 1011.5 |
| 20260510053323 | 21 | 96 | 16.1 | 30.6 | 0.00 | 0.00 | 0.00 | 63 | 1010.9 |
| 20260510052820 | 22 | 111 | 12.9 | 40.2 | 0.00 | 0.00 | 0.00 | 61 | 1010.6 |
| 20260510052316 | 22 | 173 | 3.2 | 25.7 | 0.00 | 0.00 | 0.00 | 60 | 1010.8 |
| 20260510051812 | 22 | 64 | 17.7 | 20.9 | 0.00 | 0.00 | 0.00 | 59 | 1011.5 |
| 20260510051309 | 22 | 31 | 4.8 | 12.9 | 0.00 | 0.00 | 0.00 | 58 | 1011.3 |
| 20260510050805 | 22 | 69 | 16.1 | 22.5 | 0.00 | 0.00 | 0.00 | 58 | 1011.1 |
| 20260510050256 | 22 | 63 | 16.1 | 20.9 | 0.00 | 0.00 | 0.00 | 57 | 1011.0 |
| 20260510045753 | 22 | 86 | 9.7 | 16.1 | 0.00 | 0.00 | 0.00 | 54 | 1011.0 |
| 20260510045244 | 22 | 76 | 11.3 | 14.5 | 0.00 | 0.00 | 0.00 | 52 | 1010.9 |
| 20260510044742 | 22 | 32 | 8.0 | 12.9 | 0.00 | 0.00 | 0.00 | 50 | 1011.0 |
| 20260510044239 | 22 | 78 | 6.4 | 9.7 | 0.00 | 0.00 | 0.00 | 50 | 1010.9 |
| 20260510043734 | 22 | 85 | 6.4 | 8.0 | 0.00 | 0.00 | 0.00 | 51 | 1010.8 |
| 20260510043231 | 21 | 89 | 6.4 | 6.4 | 0.00 | 0.00 | 0.00 | 48 | 1011.0 |
| 20260510042729 | 21 | 193 | 6.4 | 8.0 | 0.00 | 0.00 | 0.00 | 46 | 1011.2 |
| 20260510042224 | 22 | 238 | 4.8 | 6.4 | 0.00 | 0.00 | 0.00 | 47 | 1011.1 |
| 20260510041721 | 22 | 324 | 4.8 | 6.4 | 0.00 | 0.00 | 0.00 | 43 | 1010.9 |
| 20260510041218 | 22 | 11 | 6.4 | 9.7 | 0.00 | 0.00 | 0.00 | 48 | 1010.9 |
| 20260510040715 | 22 | 79 | 6.4 | 12.9 | 0.00 | 0.00 | 0.00 | 46 | 1010.8 |
| 20260510040212 | 22 | 80 | 11.3 | 14.5 | 0.00 | 0.00 | 0.00 | 43 | 1010.7 |
| 20260510035707 | 23 | 63 | 9.7 | 14.5 | 0.00 | 0.00 | 0.00 | 39 | 1010.6 |
| 20260510035204 | 23 | 3 | 6.4 | 8.0 | 0.00 | 0.00 | 0.00 | 31 | 1010.8 |
| 20260510034700 | 23 | 1 | 6.4 | 11.3 | 0.00 | 0.00 | 0.00 | 22 | 1010.4 |
| 20260510034157 | 24 | 21 | 6.4 | 12.9 | 0.00 | 0.00 | 0.00 | 26 | 1010.2 |
| 20260510033653 | 24 | 49 | 6.4 | 9.7 | 0.00 | 0.00 | 0.00 | 21 | 1010.2 |
| 20260510033151 | 25 | 52 | 8.0 | 11.3 | 0.00 | 0.00 | 0.00 | 20 | 1010.2 |
| 20260510032647 | 26 | 60 | 11.3 | 22.5 | 0.00 | 0.00 | 0.00 | 19 | 1010.6 |
| 20260510032143 | 26 | 41 | 8.0 | 12.9 | 0.00 | 0.00 | 0.00 | 18 | 1010.4 |
| 20260510031637 | 26 | 23 | 3.2 | 4.8 | 0.00 | 0.00 | 0.00 | 18 | 1010.4 |
| 20260510031135 | 25 | 349 | 4.8 | 9.7 | 0.00 | 0.00 | 0.00 | 18 | 1010.3 |
| 20260510030629 | 23 | 219 | 4.8 | 17.7 | 0.00 | 0.00 | 0.00 | 19 | 1010.3 |
| 20260510030127 | 24 | 210 | 9.7 | 9.7 | 0.00 | 0.00 | 0.00 | 19 | 1009.8 |
| 20260510025624 | 24 | 337 | 3.2 | 4.8 | 0.00 | 0.00 | 0.00 | 19 | 1009.7 |
| 20260510025121 | 25 | 7 | 4.8 | 6.4 | 0.00 | 0.00 | 0.00 | 18 | 1009.4 |
| 20260510024618 | 25 | 29 | 4.8 | 6.4 | 0.00 | 0.00 | 0.00 | 18 | 1009.2 |
| 20260510024114 | 26 | 9 | 4.8 | 8.0 | 0.00 | 0.00 | 0.00 | 17 | 1008.9 |
| 20260510023610 | 26 | 70 | 4.8 | 11.3 | 0.00 | 0.00 | 0.00 | 17 | 1008.8 |
| 20260510023108 | 25 | 76 | 6.4 | 9.7 | 0.00 | 0.00 | 0.00 | 18 | 1008.6 |
| 20260510022607 | 25 | 66 | 8.0 | 8.0 | 0.00 | 0.00 | 0.00 | 18 | 1008.6 |
| 20260510022102 | 25 | 83 | 4.8 | 6.4 | 0.00 | 0.00 | 0.00 | 18 | 1008.6 |
| 20260510021559 | 25 | 91 | 6.4 | 8.0 | 0.00 | 0.00 | 0.00 | 17 | 1008.4 |
| 20260510021056 | 26 | 105 | 4.8 | 9.7 | 0.00 | 0.00 | 0.00 | 17 | 1008.3 |
| 20260510020556 | 26 | 97 | 6.4 | 8.0 | 0.00 | 0.00 | 0.00 | 17 | 1008.4 |
| 20260510020052 | 26 | 82 | 6.4 | 8.0 | 0.00 | 0.00 | 0.00 | 17 | 1008.3 |
| 20260510015548 | 26 | 85 | 4.8 | 9.7 | 0.00 | 0.00 | 0.00 | 17 | 1008.1 |
| 20260510015044 | 26 | 69 | 4.8 | 8.0 | 0.00 | 0.00 | 0.00 | 17 | 1008.1 |
| 20260510014540 | 27 | 86 | 6.4 | 8.0 | 0.00 | 0.00 | 0.00 | 16 | 1008.0 |
| 20260510014038 | 27 | 78 | 4.8 | 8.0 | 0.00 | 0.00 | 0.00 | 17 | 1007.9 |
| 20260510013532 | 27 | 77 | 6.4 | 6.4 | 0.00 | 0.00 | 0.00 | 16 | 1008.0 |
| 20260510013028 | 27 | 85 | 3.2 | 4.8 | 0.00 | 0.00 | 0.00 | 17 | 1008.0 |
| 20260510012522 | 27 | 85 | 4.8 | 6.4 | 0.00 | 0.00 | 0.00 | 16 | 1007.8 |
| 20260510012019 | 28 | 75 | 0.0 | 4.8 | 0.00 | 0.00 | 0.00 | 16 | 1007.7 |
| 20260510011519 | 29 | 52 | 4.8 | 8.0 | 0.00 | 0.00 | 0.00 | 15 | 1007.7 |
| 20260510011014 | 30 | 40 | 4.8 | 6.4 | 0.00 | 0.00 | 0.00 | 15 | 1007.8 |
| 20260510010512 | 30 | 7 | 4.8 | 6.4 | 0.00 | 0.00 | 0.00 | 14 | 1007.4 |
| 20260510010009 | 31 | 353 | 4.8 | 4.8 | 0.00 | 0.00 | 0.00 | 14 | 1007.7 |
| 20260510005504 | 31 | 357 | 4.8 | 4.8 | 0.00 | 0.00 | 0.00 | 14 | 1007.4 |
| 20260510005002 | 31 | 11 | 1.6 | 4.8 | 0.00 | 0.00 | 0.00 | 14 | 1007.4 |
| 20260510004459 | 31 | 56 | 4.8 | 6.4 | 0.00 | 0.00 | 0.00 | 13 | 1007.6 |
| 20260510003957 | 32 | 355 | 4.8 | 6.4 | 0.00 | 0.00 | 0.00 | 13 | 1007.4 |
| 20260510003454 | 32 | 358 | 8.0 | 9.7 | 0.00 | 0.00 | 0.00 | 13 | 1007.4 |
| 20260510002949 | 32 | 1 | 6.4 | 9.7 | 0.00 | 0.00 | 0.00 | 13 | 1007.7 |
| 20260510002445 | 32 | 325 | 12.9 | 17.7 | 0.00 | 0.00 | 0.00 | 12 | 1007.8 |
| 20260510001942 | 32 | 9 | 9.7 | 12.9 | 0.00 | 0.00 | 0.00 | 13 | 1007.8 |
| 20260510001439 | 32 | 309 | 8.0 | 16.1 | 0.00 | 0.00 | 0.00 | 11 | 1007.7 |
| 20260510000937 | 32 | 318 | 8.0 | 12.9 | 0.00 | 0.00 | 0.00 | 11 | 1007.6 |
| 20260510000433 | 32 | 303 | 9.7 | 16.1 | 0.00 | 0.00 | 0.00 | 11 | 1007.7 |
| 20260509235929 | 32 | 300 | 14.5 | 20.9 | 0.00 | 0.00 | 0.00 | 11 | 1007.8 |
| 20260509235426 | 32 | 306 | 9.7 | 17.7 | 0.00 | 0.00 | 0.00 | 12 | 1007.7 |
| 20260509234922 | 32 | 341 | 14.5 | 20.9 | 0.00 | 0.00 | 0.00 | 12 | 1007.8 |
| 20260509234419 | 32 | 329 | 16.1 | 19.3 | 0.00 | 0.00 | 0.00 | 11 | 1007.9 |
| 20260509233917 | 32 | 295 | 16.1 | 24.1 | 0.00 | 0.00 | 0.00 | 11 | 1007.8 |
| 20260509233414 | 32 | 335 | 11.3 | 12.9 | 0.00 | 0.00 | 0.00 | 11 | 1008.0 |
| 20260509232910 | 32 | 340 | 22.5 | 33.8 | 0.00 | 0.00 | 0.00 | 11 | 1008.0 |
| 20260509232403 | 32 | 327 | 6.4 | 16.1 | 0.00 | 0.00 | 0.00 | 12 | 1007.9 |
| 20260509231858 | 32 | 314 | 11.3 | 22.5 | 0.00 | 0.00 | 0.00 | 12 | 1008.1 |
| 20260509231355 | 32 | 322 | 12.9 | 19.3 | 0.00 | 0.00 | 0.00 | 12 | 1008.1 |
| 20260509230853 | 32 | 256 | 11.3 | 16.1 | 0.00 | 0.00 | 0.00 | 11 | 1007.9 |
| 20260509230350 | 32 | 297 | 16.1 | 24.1 | 0.00 | 0.00 | 0.00 | 11 | 1008.0 |
| 20260509225845 | 32 | 301 | 20.9 | 25.7 | 0.00 | 0.00 | 0.00 | 11 | 1008.0 |
| 20260509225342 | 32 | 298 | 9.7 | 19.3 | 0.00 | 0.00 | 0.00 | 11 | 1008.2 |
| 20260509224838 | 32 | 300 | 12.9 | 17.7 | 0.00 | 0.00 | 0.00 | 12 | 1008.2 |
| 20260509224334 | 32 | 291 | 12.9 | 29.0 | 0.00 | 0.00 | 0.00 | 13 | 1008.2 |
| 20260509223831 | 32 | 309 | 14.5 | 17.7 | 0.00 | 0.00 | 0.00 | 12 | 1008.0 |
| 20260509223328 | 32 | 283 | 9.7 | 17.7 | 0.00 | 0.00 | 0.00 | 12 | 1008.0 |
| 20260509222825 | 32 | 309 | 16.1 | 24.1 | 0.00 | 0.00 | 0.00 | 11 | 1008.2 |
| 20260509222320 | 32 | 322 | 9.7 | 32.2 | 0.00 | 0.00 | 0.00 | 12 | 1008.1 |
| 20260509221816 | 32 | 300 | 9.7 | 24.1 | 0.00 | 0.00 | 0.00 | 12 | 1008.2 |
| 20260509221313 | 32 | 299 | 9.7 | 25.7 | 0.00 | 0.00 | 0.00 | 14 | 1008.1 |
| 20260509220808 | 32 | 317 | 20.9 | 25.7 | 0.00 | 0.00 | 0.00 | 13 | 1008.2 |
| 20260509220305 | 32 | 288 | 12.9 | 27.4 | 0.00 | 0.00 | 0.00 | 14 | 1008.6 |
| 20260509215800 | 33 | 306 | 17.7 | 19.3 | 0.00 | 0.00 | 0.00 | 13 | 1008.1 |
| 20260509215257 | 32 | 286 | 9.7 | 25.7 | 0.00 | 0.00 | 0.00 | 15 | 1008.3 |
| 20260509214754 | 33 | 286 | 12.9 | 20.9 | 0.00 | 0.00 | 0.00 | 15 | 1008.2 |
| 20260509214251 | 32 | 239 | 9.7 | 20.9 | 0.00 | 0.00 | 0.00 | 15 | 1008.3 |
| 20260509213748 | 32 | 299 | 12.9 | 27.4 | 0.00 | 0.00 | 0.00 | 14 | 1008.7 |
| 20260509213244 | 32 | 227 | 8.0 | 16.1 | 0.00 | 0.00 | 0.00 | 14 | 1008.6 |
| 20260509212741 | 33 | 308 | 24.1 | 27.4 | 0.00 | 0.00 | 0.00 | 14 | 1008.4 |
| 20260509212239 | 32 | 277 | 12.9 | 32.2 | 0.00 | 0.00 | 0.00 | 14 | 1008.7 |
| 20260509211734 | 32 | 294 | 22.5 | 22.5 | 0.00 | 0.00 | 0.00 | 15 | 1008.6 |
| 20260509211231 | 32 | 271 | 9.7 | 27.4 | 0.00 | 0.00 | 0.00 | 17 | 1008.8 |
| 20260509210727 | 32 | 267 | 12.9 | 22.5 | 0.00 | 0.00 | 0.00 | 16 | 1008.8 |
| 20260509210225 | 32 | 289 | 16.1 | 24.1 | 0.00 | 0.00 | 0.00 | 17 | 1008.7 |
| 20260509205724 | 32 | 320 | 20.9 | 30.6 | 0.00 | 0.00 | 0.00 | 18 | 1008.8 |
| 20260509205224 | 32 | 297 | 8.0 | 17.7 | 0.00 | 0.00 | 0.00 | 17 | 1008.7 |
| 20260509204721 | 32 | 296 | 12.9 | 22.5 | 0.00 | 0.00 | 0.00 | 18 | 1009.0 |
| 20260509204217 | 32 | 291 | 17.7 | 32.2 | 0.00 | 0.00 | 0.00 | 18 | 1009.0 |
| 20260509203713 | 32 | 296 | 20.9 | 30.6 | 0.00 | 0.00 | 0.00 | 18 | 1009.1 |
| 20260509203211 | 31 | 243 | 16.1 | 27.4 | 0.00 | 0.00 | 0.00 | 19 | 1009.3 |
| 20260509202707 | 31 | 313 | 17.7 | 27.4 | 0.00 | 0.00 | 0.00 | 18 | 1009.3 |
| 20260509202202 | 32 | 299 | 14.5 | 20.9 | 0.00 | 0.00 | 0.00 | 19 | 1009.4 |
| 20260509201657 | 31 | 275 | 11.3 | 22.5 | 0.00 | 0.00 | 0.00 | 20 | 1009.1 |
| 20260509201154 | 31 | 317 | 20.9 | 24.1 | 0.00 | 0.00 | 0.00 | 19 | 1009.4 |
| 20260509200651 | 32 | 233 | 8.0 | 17.7 | 0.00 | 0.00 | 0.00 | 18 | 1009.2 |
| 20260509200145 | 32 | 292 | 14.5 | 22.5 | 0.00 | 0.00 | 0.00 | 21 | 1009.3 |
| 20260509195641 | 31 | 231 | 6.4 | 20.9 | 0.00 | 0.00 | 0.00 | 20 | 1009.4 |
| 20260509195136 | 31 | 210 | 9.7 | 20.9 | 0.00 | 0.00 | 0.00 | 19 | 1009.6 |
| 20260509194631 | 32 | 231 | 9.7 | 20.9 | 0.00 | 0.00 | 0.00 | 18 | 1009.8 |
| 20260509194129 | 31 | 258 | 14.5 | 24.1 | 0.00 | 0.00 | 0.00 | 20 | 1009.6 |
| 20260509193624 | 31 | 233 | 11.3 | 17.7 | 0.00 | 0.00 | 0.00 | 21 | 1009.7 |
| 20260509193120 | 31 | 227 | 20.9 | 27.4 | 0.00 | 0.00 | 0.00 | 20 | 1009.9 |
| 20260509192617 | 31 | 236 | 3.2 | 19.3 | 0.00 | 0.00 | 0.00 | 20 | 1010.0 |
| 20260509192112 | 31 | 225 | 6.4 | 24.1 | 0.00 | 0.00 | 0.00 | 20 | 1010.2 |
| 20260509191607 | 31 | 234 | 20.9 | 30.6 | 0.00 | 0.00 | 0.00 | 20 | 1010.1 |
| 20260509191103 | 31 | 264 | 6.4 | 17.7 | 0.00 | 0.00 | 0.00 | 23 | 1010.2 |
| 20260509190600 | 30 | 286 | 4.8 | 20.9 | 0.00 | 0.00 | 0.00 | 22 | 1010.1 |
| 20260509190058 | 31 | 301 | 14.5 | 17.7 | 0.00 | 0.00 | 0.00 | 24 | 1010.3 |
| 20260509185555 | 30 | 295 | 9.7 | 24.1 | 0.00 | 0.00 | 0.00 | 23 | 1010.3 |
| 20260509185051 | 30 | 227 | 16.1 | 20.9 | 0.00 | 0.00 | 0.00 | 23 | 1010.3 |
| 20260509184550 | 30 | 235 | 6.4 | 24.1 | 0.00 | 0.00 | 0.00 | 24 | 1010.7 |
| 20260509184045 | 30 | 212 | 17.7 | 27.4 | 0.00 | 0.00 | 0.00 | 24 | 1010.8 |
| 20260509183541 | 29 | 268 | 11.3 | 24.1 | 0.00 | 0.00 | 0.00 | 24 | 1010.7 |
| 20260509183036 | 30 | 239 | 16.1 | 27.4 | 0.00 | 0.00 | 0.00 | 23 | 1010.8 |
| 20260509182533 | 30 | 221 | 24.1 | 41.8 | 0.00 | 0.00 | 0.00 | 23 | 1010.8 |
| 20260509182025 | 30 | 205 | 20.9 | 35.4 | 0.00 | 0.00 | 0.00 | 24 | 1010.9 |